**Maintenance in progress, block data might not be up to date**

Address 0xdf1450ea0c1f96e9cf92f7cafb29147104753602 2

 

Overview

Balance:
5.22527967796741824 BNB

BNB Value:
$3,209.58 (@ $614.24/BNB)

Token:
 
Txn Hash Method
Block
From
To
Value [Txn Fee]
0x2bbd1fba59d5a6845b8dafacf221a19200c7774c6c12a4daed347bcdaad17556Swap ETH For Exa...125110112021-11-09 19:51:1323 days 6 hrs ago0xdf1450ea0c1f96e9cf92f7cafb29147104753602OUT PancakeSwap: Router v21.004999856717357 BNB0.001392902
0xdf678a15845a975d3678c24cd47c02b9a2f0aec0a6b89a1005f826f5b163423bTransfer121731342021-10-28 20:33:1735 days 5 hrs ago0xdf1450ea0c1f96e9cf92f7cafb29147104753602OUT 0x48dae40b4cfed99d16de9702a4234ed032572b6d0 BNB0.000146085
0x8f8d7056a8c92ca914ebb903ee32947813da9c05c7bed4b8c8a172dd170c2f370x60806040121731242021-10-28 20:32:4735 days 5 hrs ago0xdf1450ea0c1f96e9cf92f7cafb29147104753602OUT Contract Creation0 BNB0.004450575
0xc02ace0741ddfe085aa037ceb3c195d245b5c99b5e0ad75fa5c43b0ea341ed89Transfer121727952021-10-28 20:16:1935 days 5 hrs ago0xdf1450ea0c1f96e9cf92f7cafb29147104753602OUT 0xb4da38e9ef20dd44a55648d2980d976be36cb7640 BNB0.000146085
0xb5500cd509df67d4ec2521f811d8090d85f3c941f789c002e3ba8a5534e0fb310x60806040121727842021-10-28 20:15:4635 days 5 hrs ago0xdf1450ea0c1f96e9cf92f7cafb29147104753602OUT Contract Creation0 BNB0.004450635
0x362e97c553cc562aa42a4be90346483645ef92833ea03f9f5d78594d26438bedTransfer121724572021-10-28 19:58:5435 days 5 hrs ago0xdf1450ea0c1f96e9cf92f7cafb29147104753602OUT 0x43915d6056e9c582f3c48b49fa78c1a6743bb5ed0 BNB0.000146085
0x5b79e64338a9a72bdf6e617d7097f0e088c42a254006c32de125dc9461aa33730x60806040121724452021-10-28 19:58:1835 days 5 hrs ago0xdf1450ea0c1f96e9cf92f7cafb29147104753602OUT Contract Creation0 BNB0.004450275
0xe74395353432a4b323f66d1bb9b29528b3b1550ecec2b6cf0fe1930cd813bffcTransfer121723182021-10-28 19:51:5735 days 6 hrs ago0xdf1450ea0c1f96e9cf92f7cafb29147104753602OUT 0xbafdab6406cad81c0d28da3957c60d4e88ec12160 BNB0.000146085
0x8d7f754148f642fc7b2d3e5867bc3b4b5f5786a7205bb0bc33fbfcd21e02a5e80x60806040121723082021-10-28 19:51:2735 days 6 hrs ago0xdf1450ea0c1f96e9cf92f7cafb29147104753602OUT Contract Creation0 BNB0.004450215
0x3d3e37b38fec93de58618af40563acb3f7b6176d193776d8c8dc02a396ae9782Transfer121722072021-10-28 19:46:2435 days 6 hrs ago0xdf1450ea0c1f96e9cf92f7cafb29147104753602OUT 0x33c9dabc32c11afb8b248b9ef38c6fc12ce417090 BNB0.000146085
0xde9a7298518e4f6bd871378fcc3065792844ac76c8ad321403eba4b7e7d58dad0x60806040121721972021-10-28 19:45:5435 days 6 hrs ago0xdf1450ea0c1f96e9cf92f7cafb29147104753602OUT Contract Creation0 BNB0.004450335
0x98b50f04ece482dff5d33d0154d019fdc629ebaab965c54accd3d5317939b7d2Transfer121720552021-10-28 19:38:4735 days 6 hrs ago0xdf1450ea0c1f96e9cf92f7cafb29147104753602OUT 0xd81dfd4abcfc140215ed17644a7c35831a8bfcef0 BNB0.000146085
0xe4b63b016f85ad2b38e56c93bb44c42e85266e4839110ff7854c291717a6a9630x60806040121720432021-10-28 19:38:1135 days 6 hrs ago0xdf1450ea0c1f96e9cf92f7cafb29147104753602OUT Contract Creation0 BNB0.004450455
0x8371a6e5c4a68e75a861893c24c080713f813ab46d2d1a13ece77eae0681096aTransfer121707862021-10-28 18:30:2135 days 7 hrs ago0xdf1450ea0c1f96e9cf92f7cafb29147104753602OUT 0xf9015e958d5bda7fe7b39a2f09ae31b34dfa3f110 BNB0.000146085
0xe1363db9da3c73340d999aa64c94a6d765ef20a75fdc6d0bcb023606acfa61460x60806040121707752021-10-28 18:29:4635 days 7 hrs ago0xdf1450ea0c1f96e9cf92f7cafb29147104753602OUT Contract Creation0 BNB0.004450275
0xf63ce16a9a66f574f31a19ca29e83b714c42cc9a1d485c7dd0fce3188123dffaTransfer121705442021-10-28 18:17:0935 days 7 hrs ago0xdf1450ea0c1f96e9cf92f7cafb29147104753602OUT 0x81094c51a3dc214545753a3d7f86237341c9f4fc0 BNB0.000146085
0x8fdec070aafa6966f1a949ac264e451defc1e7d446251b0cd04773432680507d0x60806040121705342021-10-28 18:16:3735 days 7 hrs ago0xdf1450ea0c1f96e9cf92f7cafb29147104753602OUT Contract Creation0 BNB0.004450095
0x35b1661904ff1b219a2be3f1357da65daf1f844de9a1e5fbd7d8d6f7dd4972f4Transfer121602612021-10-28 9:31:3935 days 16 hrs ago0xdf1450ea0c1f96e9cf92f7cafb29147104753602OUT 0x5a5f66ab153aa1bc366315539f3cea57d24a65200 BNB0.000146085
0x7a9fa9c5b0ef3a8669727c07d60fb3e793211c68f3f97e50b74f6651698850f50x60806040121602422021-10-28 9:30:4235 days 16 hrs ago0xdf1450ea0c1f96e9cf92f7cafb29147104753602OUT Contract Creation0 BNB0.004450275
0x26a8d6ffbf8194e466c9f01f81f7c12df97bad63eef09951b68c42d4cac4dd02Transfer121601252021-10-28 9:24:5135 days 16 hrs ago0xdf1450ea0c1f96e9cf92f7cafb29147104753602OUT 0x38fc2bb2f9d64d2fb3e80a586eed9fabed8fbad70 BNB0.000146085
0xd301fa229fbbf860fe9720c233a9e51ad312a23ce71a17afee14751287f8a06f0x60806040121601072021-10-28 9:23:5735 days 16 hrs ago0xdf1450ea0c1f96e9cf92f7cafb29147104753602OUT Contract Creation0 BNB0.004450455
0x324ac18718d05290f1fbcf6d26372603ce4969e9c4afb3e7bafa7dc4cc40cb39Transfer121446372021-10-27 20:27:1936 days 5 hrs ago0xdf1450ea0c1f96e9cf92f7cafb29147104753602OUT 0x49dd2b074a7d4e239fffaa19feaca957d68322180 BNB0.000146085
0x23fb401c13b0aafd24827d63619d112a1991a497c7d058116000998c7217aae30x60806040121446282021-10-27 20:26:5236 days 5 hrs ago0xdf1450ea0c1f96e9cf92f7cafb29147104753602OUT Contract Creation0 BNB0.004450215
0xb22b2347e48453d6e0544a0ed54dc2723128e19d87380b2bb9c8369130d9ed23Transfer121445292021-10-27 20:21:5536 days 5 hrs ago0xdf1450ea0c1f96e9cf92f7cafb29147104753602OUT 0x8290eae9048409810db81c3cb3185f3dd1079c5e0 BNB0.000146085
0x77c090592fbb3de85218d72ca4cae8e460efacb3eb9d8186eb692954894ea3e80x60806040121445192021-10-27 20:21:2536 days 5 hrs ago0xdf1450ea0c1f96e9cf92f7cafb29147104753602OUT Contract Creation0 BNB0.004450455
[ Download CSV Export 
Latest 9 internal transactions
Parent Txn Hash Block From To Value
0x2bbd1fba59d5a6845b8dafacf221a19200c7774c6c12a4daed347bcdaad17556125110112021-11-09 19:51:1323 days 6 hrs ago PancakeSwap: Router v20xdf1450ea0c1f96e9cf92f7cafb291471047536020.004997612886799895 BNB
0x5de0f61dec12e7663c4622bd6ebe725ba070f78fbda033578acf9e078dff380a115153162021-10-05 18:44:4958 days 7 hrs ago 0xc590175e458b83680867afd273527ff58f74c02b0xdf1450ea0c1f96e9cf92f7cafb2914710475360217.25901119853903159 BNB
0x02900ef9543efe7f039c85e6d581442cdad58c0a70dfc7b132e8be4b25355c6e104765372021-08-30 10:11:4694 days 15 hrs ago PancakeSwap: Router v20xdf1450ea0c1f96e9cf92f7cafb291471047536020.398394079999999999 BNB
0x810c24ae3e50f5381ff0eff7e2ceadcc1d64a063754b633bed1cd376ff5d75ed102366292021-08-22 0:29:30103 days 1 hr ago PancakeSwap: Router v20xdf1450ea0c1f96e9cf92f7cafb291471047536020.000921124656259926 BNB
0x0b4664615b91f51e62a23105099e30dec1404bf69ca1081a67d37910d4169ed1102366182021-08-22 0:28:57103 days 1 hr ago PancakeSwap: Router v20xdf1450ea0c1f96e9cf92f7cafb291471047536020.001750024533885744 BNB
0x1e6f9b995f702774e82abffc7647b3caf22d2ad5d37a444a46f81b252a10e04c102365562021-08-22 0:25:51103 days 1 hr ago PancakeSwap: Router v20xdf1450ea0c1f96e9cf92f7cafb291471047536020.002520415459891035 BNB
0xae153b822966b094e345dc688042b0ab411c448ff981f21b29fb4eadabf006d2102303072021-08-21 19:13:16103 days 6 hrs ago PancakeSwap: Router v20xdf1450ea0c1f96e9cf92f7cafb291471047536020.000584147716372281 BNB
0x7f1bbf1ed2076bf24ee2800603c56b43506521da600bb6ed75402de4ef8b715d100186032021-08-14 9:52:12110 days 16 hrs ago PancakeSwap: Router v20xdf1450ea0c1f96e9cf92f7cafb291471047536020.398394079999999999 BNB
0x1650a6277349440d8299872729b9474e1201da6fedd243ec9734ba730b6a17dd94997642021-07-26 17:42:33129 days 8 hrs ago PancakeSwap: Router v20xdf1450ea0c1f96e9cf92f7cafb291471047536021 wei
[ Download CSV Export 
Loading

Contract Name:
0 BNB

Compiler Version
0

Optimization Enabled:
0 BNB

Other Settings:
-NA-
Block Transaction Gas Used Reward
Age Block Fee Address BC Fee Address Voting Power Jailed Incoming
Block Uncle Number Difficulty Gas Used Reward
Loading
Loading
Make sure to use the "Vote Down" button for any spammy posts, and the "Vote Up" for interesting conversations.